Time,TemperatureF,DewpointF,PressureIn,WindDirection,WindDirectionDegrees,WindSpeedMPH,WindSpeedGustMPH,Humidity,HourlyPrecipIn,Conditions,Clouds,dailyrainin,SolarRadiationWatts/m^2,SoftwareType,DateUTC
2013-02-15 00:21:00,12.0,-5.0,-100.00,West,272,6.0,10.0,45,0.00,,,0.00,0.000000,,2013-02-15 07:21:00,
2013-02-15 00:31:00,12.0,-5.0,-100.00,West,272,6.0,10.0,45,0.00,,,0.00,0.000000,,2013-02-15 07:31:00,
2013-02-15 00:42:00,12.0,-5.0,-100.00,West,272,6.0,10.0,45,0.00,,,0.00,0.000000,,2013-02-15 07:42:00,
2013-02-15 00:52:00,12.0,-5.0,-100.00,West,272,6.0,10.0,45,0.00,,,0.00,0.000000,,2013-02-15 07:52:00,
2013-02-15 01:21:00,12.0,-7.0,-100.00,West,268,4.0,10.0,41,0.00,,,0.00,0.000000,,2013-02-15 08:21:00,
2013-02-15 01:32:00,12.0,-7.0,-100.00,West,268,4.0,10.0,41,0.00,,,0.00,0.000000,,2013-02-15 08:32:00,
2013-02-15 01:42:00,12.0,-7.0,-100.00,West,268,4.0,10.0,41,0.00,,,0.00,0.000000,,2013-02-15 08:42:00,
2013-02-15 01:52:00,12.0,-7.0,-100.00,West,268,4.0,10.0,41,0.00,,,0.00,0.000000,,2013-02-15 08:52:00,
2013-02-15 02:21:00,9.0,-8.0,-100.00,NNW,333,2.0,6.0,44,0.00,,,0.00,0.000000,,2013-02-15 09:21:00,
2013-02-15 02:32:00,9.0,-8.0,-100.00,NNW,333,2.0,6.0,44,0.00,,,0.00,0.000000,,2013-02-15 09:32:00,
2013-02-15 02:42:00,9.0,-8.0,-100.00,NNW,333,2.0,6.0,44,0.00,,,0.00,0.000000,,2013-02-15 09:42:00,
2013-02-15 02:52:00,9.0,-8.0,-100.00,NNW,333,2.0,6.0,44,0.00,,,0.00,0.000000,,2013-02-15 09:52:00,
2013-02-15 03:21:00,10.0,-8.0,-100.00,NW,325,6.0,13.0,44,0.00,,,0.00,0.000000,,2013-02-15 10:21:00,
2013-02-15 03:31:00,10.0,-8.0,-100.00,NW,325,6.0,13.0,44,0.00,,,0.00,0.000000,,2013-02-15 10:31:00,
2013-02-15 03:41:00,10.0,-8.0,-100.00,NW,325,6.0,13.0,44,0.00,,,0.00,0.000000,,2013-02-15 10:41:00,
2013-02-15 03:51:00,10.0,-8.0,-100.00,NW,325,6.0,13.0,44,0.00,,,0.00,0.000000,,2013-02-15 10:51:00,
2013-02-15 04:23:00,10.0,-5.0,-100.00,WNW,303,6.0,13.0,49,0.00,,,0.00,0.000000,,2013-02-15 11:23:00,
2013-02-15 04:32:00,10.0,-5.0,-100.00,WNW,303,6.0,13.0,49,0.00,,,0.00,0.000000,,2013-02-15 11:32:00,
2013-02-15 04:42:00,10.0,-5.0,-100.00,WNW,303,6.0,13.0,49,0.00,,,0.00,0.000000,,2013-02-15 11:42:00,
2013-02-15 04:52:00,10.0,-5.0,-100.00,WNW,303,6.0,13.0,49,0.00,,,0.00,0.000000,,2013-02-15 11:52:00,
2013-02-15 05:21:00,10.0,-4.0,-100.00,North,356,6.0,16.0,52,0.00,,,0.00,0.000000,,2013-02-15 12:21:00,
2013-02-15 05:32:00,10.0,-4.0,-100.00,North,356,6.0,16.0,52,0.00,,,0.00,0.000000,,2013-02-15 12:32:00,
2013-02-15 06:22:00,9.0,-5.0,-100.00,NNE,16,3.0,14.0,53,0.00,,,0.00,0.000000,,2013-02-15 13:22:00,
2013-02-15 06:32:00,9.0,-5.0,-100.00,NNE,16,3.0,14.0,53,0.00,,,0.00,0.000000,,2013-02-15 13:32:00,
2013-02-15 06:42:00,9.0,-5.0,-100.00,NNE,16,3.0,14.0,53,0.00,,,0.00,0.000000,,2013-02-15 13:42:00,
2013-02-15 06:52:00,9.0,-5.0,-100.00,NNE,16,3.0,14.0,53,0.00,,,0.00,0.000000,,2013-02-15 13:52:00,
2013-02-15 07:21:00,9.0,-5.0,-100.00,NNW,329,3.0,11.0,53,0.00,,,0.00,1.000000,,2013-02-15 14:21:00,
2013-02-15 07:32:00,9.0,-5.0,-100.00,NNW,329,3.0,11.0,53,0.00,,,0.00,1.000000,,2013-02-15 14:32:00,
2013-02-15 07:42:00,9.0,-5.0,-100.00,NNW,329,3.0,11.0,53,0.00,,,0.00,1.000000,,2013-02-15 14:42:00,
2013-02-15 07:52:00,9.0,-5.0,-100.00,NNW,329,3.0,11.0,53,0.00,,,0.00,1.000000,,2013-02-15 14:52:00,
2013-02-15 08:21:00,10.0,-3.0,-100.00,NW,309,7.0,12.0,54,0.00,,,0.00,56.000000,,2013-02-15 15:21:00,
2013-02-15 08:32:00,10.0,-3.0,-100.00,NW,309,7.0,12.0,54,0.00,,,0.00,56.000000,,2013-02-15 15:32:00,
2013-02-15 08:42:00,10.0,-3.0,-100.00,NW,309,7.0,12.0,54,0.00,,,0.00,56.000000,,2013-02-15 15:42:00,
2013-02-15 08:51:00,10.0,-3.0,-100.00,NW,309,7.0,12.0,54,0.00,,,0.00,56.000000,,2013-02-15 15:51:00,
2013-02-15 09:22:00,14.0,-1.0,-100.00,West,264,7.0,16.0,51,0.00,,,0.00,209.000000,,2013-02-15 16:22:00,
2013-02-15 09:32:00,14.0,-1.0,-100.00,West,264,7.0,16.0,51,0.00,,,0.00,209.000000,,2013-02-15 16:32:00,
2013-02-15 09:42:00,14.0,-1.0,-100.00,West,264,7.0,16.0,51,0.00,,,0.00,209.000000,,2013-02-15 16:42:00,
2013-02-15 09:51:00,14.0,-1.0,-100.00,West,264,7.0,16.0,51,0.00,,,0.00,209.000000,,2013-02-15 16:51:00,
2013-02-15 10:21:00,18.0,0.0,-100.00,West,276,10.0,23.0,44,0.00,,,0.00,521.000000,,2013-02-15 17:21:00,
2013-02-15 10:32:00,18.0,0.0,-100.00,West,276,10.0,23.0,44,0.00,,,0.00,521.000000,,2013-02-15 17:32:00,
2013-02-15 10:42:00,18.0,0.0,-100.00,West,276,10.0,23.0,44,0.00,,,0.00,521.000000,,2013-02-15 17:42:00,
2013-02-15 10:52:00,18.0,0.0,-100.00,West,276,10.0,23.0,44,0.00,,,0.00,521.000000,,2013-02-15 17:52:00,
2013-02-15 11:21:00,20.0,1.0,-100.00,West,274,10.0,31.0,42,0.00,,,0.00,702.000000,,2013-02-15 18:21:00,
2013-02-15 11:32:00,20.0,1.0,-100.00,West,274,10.0,31.0,42,0.00,,,0.00,702.000000,,2013-02-15 18:32:00,
2013-02-15 11:42:00,20.0,1.0,-100.00,West,274,10.0,31.0,42,0.00,,,0.00,702.000000,,2013-02-15 18:42:00,
2013-02-15 11:52:00,20.0,1.0,-100.00,West,274,10.0,31.0,42,0.00,,,0.00,702.000000,,2013-02-15 18:52:00,
2013-02-15 12:22:00,22.0,-3.0,-100.00,West,279,12.0,21.0,32,0.00,,,0.00,843.000000,,2013-02-15 19:22:00,
2013-02-15 12:32:00,22.0,-3.0,-100.00,West,279,12.0,21.0,32,0.00,,,0.00,843.000000,,2013-02-15 19:32:00,
2013-02-15 12:42:00,22.0,-3.0,-100.00,West,279,12.0,21.0,32,0.00,,,0.00,843.000000,,2013-02-15 19:42:00,
2013-02-15 12:52:00,22.0,-3.0,-100.00,West,279,12.0,21.0,32,0.00,,,0.00,843.000000,,2013-02-15 19:52:00,
2013-02-15 13:21:00,23.0,-4.0,-100.00,WNW,297,11.0,25.0,29,0.00,,,0.00,852.000000,,2013-02-15 20:21:00,
2013-02-15 13:32:00,23.0,-4.0,-100.00,WNW,297,11.0,25.0,29,0.00,,,0.00,852.000000,,2013-02-15 20:32:00,
2013-02-15 13:42:00,23.0,-4.0,-100.00,WNW,297,11.0,25.0,29,0.00,,,0.00,852.000000,,2013-02-15 20:42:00,
2013-02-15 13:52:00,23.0,-4.0,-100.00,WNW,297,11.0,25.0,29,0.00,,,0.00,852.000000,,2013-02-15 20:52:00,
2013-02-15 14:21:00,23.0,-6.0,-100.00,WNW,290,16.0,29.0,27,0.00,,,0.00,798.000000,,2013-02-15 21:21:00,
2013-02-15 14:32:00,23.0,-6.0,-100.00,WNW,290,16.0,29.0,27,0.00,,,0.00,798.000000,,2013-02-15 21:32:00,
2013-02-15 14:42:00,23.0,-6.0,-100.00,WNW,290,16.0,29.0,27,0.00,,,0.00,798.000000,,2013-02-15 21:42:00,
2013-02-15 14:52:00,23.0,-6.0,-100.00,WNW,290,16.0,29.0,27,0.00,,,0.00,798.000000,,2013-02-15 21:52:00,
2013-02-15 15:22:00,25.0,-1.0,-100.00,West,260,9.0,26.0,31,0.00,,,0.00,682.000000,,2013-02-15 22:22:00,
2013-02-15 15:32:00,25.0,-1.0,-100.00,West,260,9.0,26.0,31,0.00,,,0.00,682.000000,,2013-02-15 22:32:00,
2013-02-15 15:41:00,25.0,-1.0,-100.00,West,260,9.0,26.0,31,0.00,,,0.00,682.000000,,2013-02-15 22:41:00,
2013-02-15 15:51:00,25.0,-1.0,-100.00,West,260,9.0,26.0,31,0.00,,,0.00,682.000000,,2013-02-15 22:51:00,
2013-02-15 16:21:00,23.0,-4.0,-100.00,WNW,289,11.0,27.0,29,0.00,,,0.00,501.000000,,2013-02-15 23:21:00,
2013-02-15 16:32:00,23.0,-4.0,-100.00,WNW,289,11.0,27.0,29,0.00,,,0.00,501.000000,,2013-02-15 23:32:00,
2013-02-15 16:42:00,23.0,-4.0,-100.00,WNW,289,11.0,27.0,29,0.00,,,0.00,501.000000,,2013-02-15 23:42:00,
2013-02-15 16:52:00,23.0,-4.0,-100.00,WNW,289,11.0,27.0,29,0.00,,,0.00,501.000000,,2013-02-15 23:52:00,
2013-02-15 17:11:00,22.0,-3.0,-100.00,WNW,285,9.0,22.0,32,0.00,,,0.00,282.000000,,2013-02-16 00:11:00,
2013-02-15 17:21:00,22.0,-3.0,-100.00,WNW,285,9.0,22.0,32,0.00,,,0.00,282.000000,,2013-02-16 00:21:00,
2013-02-15 17:32:00,22.0,-3.0,-100.00,WNW,285,9.0,22.0,32,0.00,,,0.00,282.000000,,2013-02-16 00:32:00,
2013-02-15 17:41:00,22.0,-3.0,-100.00,WNW,285,9.0,22.0,32,0.00,,,0.00,282.000000,,2013-02-16 00:41:00,
2013-02-15 17:51:00,22.0,-3.0,-100.00,WNW,285,9.0,22.0,32,0.00,,,0.00,282.000000,,2013-02-16 00:51:00,
2013-02-15 18:21:00,17.0,-3.0,-100.00,WNW,284,8.0,16.0,41,0.00,,,0.00,55.000000,,2013-02-16 01:21:00,
2013-02-15 18:32:00,17.0,-3.0,-100.00,WNW,284,8.0,16.0,41,0.00,,,0.00,55.000000,,2013-02-16 01:32:00,
2013-02-15 18:42:00,17.0,-3.0,-100.00,WNW,284,8.0,16.0,41,0.00,,,0.00,55.000000,,2013-02-16 01:42:00,
2013-02-15 18:51:00,17.0,-3.0,-100.00,WNW,284,8.0,16.0,41,0.00,,,0.00,55.000000,,2013-02-16 01:51:00,
2013-02-15 19:21:00,15.0,-4.0,-100.00,NW,305,8.0,18.0,41,0.00,,,0.00,0.000000,,2013-02-16 02:21:00,
2013-02-15 19:32:00,15.0,-4.0,-100.00,NW,305,8.0,18.0,41,0.00,,,0.00,0.000000,,2013-02-16 02:32:00,
2013-02-15 19:42:00,15.0,-4.0,-100.00,NW,305,8.0,18.0,41,0.00,,,0.00,0.000000,,2013-02-16 02:42:00,
2013-02-15 19:52:00,15.0,-4.0,-100.00,NW,305,8.0,18.0,41,0.00,,,0.00,0.000000,,2013-02-16 02:52:00,
2013-02-15 20:21:00,14.0,-6.0,-100.00,WNW,287,7.0,15.0,39,0.00,,,0.00,0.000000,,2013-02-16 03:21:00,
2013-02-15 20:32:00,14.0,-6.0,-100.00,WNW,287,7.0,15.0,39,0.00,,,0.00,0.000000,,2013-02-16 03:32:00,
2013-02-15 20:42:00,14.0,-6.0,-100.00,WNW,287,7.0,15.0,39,0.00,,,0.00,0.000000,,2013-02-16 03:42:00,
2013-02-15 20:52:00,14.0,-6.0,-100.00,WNW,287,7.0,15.0,39,0.00,,,0.00,0.000000,,2013-02-16 03:52:00,
2013-02-15 21:21:00,14.0,-4.0,-100.00,WNW,287,8.0,19.0,43,0.00,,,0.00,0.000000,,2013-02-16 04:21:00,
2013-02-15 21:32:00,14.0,-4.0,-100.00,WNW,287,8.0,19.0,43,0.00,,,0.00,0.000000,,2013-02-16 04:32:00,
2013-02-15 21:42:00,14.0,-4.0,-100.00,WNW,287,8.0,19.0,43,0.00,,,0.00,0.000000,,2013-02-16 04:42:00,
2013-02-15 21:51:00,14.0,-4.0,-100.00,WNW,287,8.0,19.0,43,0.00,,,0.00,0.000000,,2013-02-16 04:51:00,
2013-02-15 22:22:00,14.0,-6.0,-100.00,WNW,293,7.0,19.0,40,0.00,,,0.00,0.000000,,2013-02-16 05:22:00,
2013-02-15 22:32:00,14.0,-6.0,-100.00,WNW,293,7.0,19.0,40,0.00,,,0.00,0.000000,,2013-02-16 05:32:00,
2013-02-15 22:42:00,14.0,-6.0,-100.00,WNW,293,7.0,19.0,40,0.00,,,0.00,0.000000,,2013-02-16 05:42:00,
2013-02-15 22:52:00,14.0,-6.0,-100.00,WNW,293,7.0,19.0,40,0.00,,,0.00,0.000000,,2013-02-16 05:52:00,
2013-02-15 23:21:00,15.0,-7.0,-100.00,WNW,285,6.0,14.0,36,0.00,,,0.00,0.000000,,2013-02-16 06:21:00,
2013-02-15 23:32:00,15.0,-7.0,-100.00,WNW,285,6.0,14.0,36,0.00,,,0.00,0.000000,,2013-02-16 06:32:00,
2013-02-15 23:42:00,15.0,-7.0,-100.00,WNW,285,6.0,14.0,36,0.00,,,0.00,0.000000,,2013-02-16 06:42:00,
2013-02-15 23:51:00,15.0,-7.0,-100.00,WNW,285,6.0,14.0,36,0.00,,,0.00,0.000000,,2013-02-16 06:51:00,